Location: Haliburton Scout Reserve
(45.0900°N, 78.3200°W)
Time: 02:19:46
(UTC-04:00)

ESTCUBE 1 - Pass Details

Date: 24 May 2022
Orbit: 644 x 659 km, 97.9° (Epoch: 27 June)

Event Time Altitude Azimuth Distance (km) Brightness Sun altitude
Exits shadow 00:16:46 23° 245° (WSW) 1,374 ? -23.0°
Maximum altitude 00:17:44 25° 266° (W) 1,309 ? -23.1°
Drops below altitude 10° 00:21:29 10° 322° (NW) 2,067 ? -23.2°
Sets 00:24:03 0° 336° (NNW) 2,980 ? -23.3°
